Weather History for KTIF - March, 2013

Change the Weather History Date:

Tuesday, March 19, 2013

  Actual Average (KLBF) Record (KLBF)
Temperature  
Mean Temperature 36 °F 39 °F  
Max Temperature 47 °F 54 °F 86 °F (2004)
Min Temperature 23 °F 24 °F -6 °F (1965)
Degree Days  
Heating Degree Days 30 26  
Month to date heating degree days 547  
Since 1 July heating degree days 5575  
Cooling Degree Days 0 0  
Month to date cooling degree days 0  
Year to date cooling degree days 0  
Moisture  
Dew Point 13 °F    
Average Humidity 42    
Maximum Humidity 62    
Minimum Humidity 24    
Precipitation  
Precipitation 0.00 in 0.04 in 0.91 in (1964)
Month to date precipitation 0.57  
Year to date precipitation 1.41  
Snow  
Snow 0.00 in 0.20 in 7.40 in (1888)
Month to date snowfall 2.8  
Since 1 July snowfall 23.7  
Snow Depth -    
Sea Level Pressure  
Sea Level Pressure 30.11 in    
Wind  
Wind Speed 9 mph (NW)    
Max Wind Speed 23 mph    
Max Gust Speed 34 mph    
Visibility 10 miles    
Events      
T = Trace of Precipitation, MM = Missing Value Source: NWS Daily Summary

Daily Weather History Graph

Daily Weather History Graph

Search for Another Location

Airport or City:

Trip Planner

Search our weather history database for the weather conditions in past years. The results will help you decide how hot, cold, wet, or windy it might be!

Date:

Astronomy

Mar. 19, 2013 Rise Set
Actual Time 7:46 AM CDT 7:53 PM CDT
Civil Twilight 7:18 AM CDT 8:21 PM CDT
Nautical Twilight 6:46 AM CDT 8:54 PM CDT
Astronomical Twilight 6:13 AM CDT 9:27 PM CDT
Moon 12:33 PM CDT (3/19) 2:47 AM CDT (3/19)
Length of Visible Light 13h 02m
Length of Day
12h 06m
Waxing Crescent, 50% of the Moon is Illuminated
Mar 19
Waxing Crescent
Mar 19
First Quarter
Mar 27
Full
Apr 2
Last Quarter
Apr 10
New

Hourly Weather History & Observations

Time (CDT) Temp. Windchill Dew Point Humidity Pressure Visibility Wind Dir Wind Speed Gust Speed Precip Events Conditions
12:15 AM 29.3 °F - 12.7 °F 50% 30.00 in 10.0 mi Calm Calm - N/A   Overcast
12:35 AM 27.9 °F 22.6 °F 11.1 °F 50% 30.00 in 10.0 mi South 4.6 mph - N/A   Overcast
12:55 AM 27.7 °F 23.8 °F 10.6 °F 49% 29.99 in 10.0 mi SE 3.5 mph - N/A   Scattered Clouds
1:15 AM 26.2 °F 22.1 °F 9.5 °F 49% 29.99 in 10.0 mi South 3.5 mph - N/A   Clear
1:35 AM 24.8 °F 19.1 °F 11.7 °F 57% 29.98 in 10.0 mi SSE 4.6 mph - N/A   Scattered Clouds
1:55 AM 27.5 °F 22.2 °F 9.5 °F 47% 29.98 in 10.0 mi South 4.6 mph - N/A   Scattered Clouds
2:15 AM 28.8 °F 20.9 °F 8.1 °F 42% 29.98 in 10.0 mi South 8.1 mph - N/A   Clear
2:35 AM 28.6 °F 19.3 °F 7.7 °F 41% 29.96 in 10.0 mi SSE 10.4 mph - N/A   Clear
2:55 AM 27.3 °F 19.1 °F 9.3 °F 47% 29.96 in 10.0 mi SSE 8.1 mph - N/A   Clear
3:15 AM 29.1 °F 23.0 °F 8.4 °F 42% 29.97 in 10.0 mi South 5.8 mph - N/A   Clear
3:35 AM 28.4 °F 21.2 °F 9.5 °F 45% 29.97 in 10.0 mi South 6.9 mph - N/A   Scattered Clouds
3:55 AM 28.9 °F 22.8 °F 10.2 °F 46% 29.97 in 10.0 mi SSW 5.8 mph - N/A   Mostly Cloudy
4:15 AM 28.4 °F 23.3 °F 11.7 °F 50% 29.96 in 10.0 mi SSW 4.6 mph - N/A   Mostly Cloudy
4:35 AM 28.2 °F - 13.3 °F 54% 29.96 in 10.0 mi Calm Calm - N/A   Overcast
4:55 AM 27.5 °F - 14.9 °F 59% 29.96 in 10.0 mi Calm Calm - N/A   Mostly Cloudy
5:15 AM 27.0 °F - 14.9 °F 60% 29.97 in 10.0 mi Calm Calm - N/A   Scattered Clouds
5:35 AM 28.6 °F - 17.1 °F 62% 29.97 in 10.0 mi Calm Calm - N/A   Mostly Cloudy
5:55 AM 30.0 °F 25.2 °F 18.3 °F 62% 29.98 in 10.0 mi WSW 4.6 mph - N/A   Overcast
6:15 AM 31.6 °F 26.0 °F 18.5 °F 58% 29.98 in 10.0 mi WSW 5.8 mph - N/A   Overcast
6:35 AM 31.5 °F 25.8 °F 19.0 °F 60% 29.99 in 10.0 mi WSW 5.8 mph - N/A   Overcast
6:55 AM 32.0 °F 23.0 °F 19.4 °F 60% 29.99 in 10.0 mi WSW 11.5 mph - N/A   Overcast
7:15 AM 32.4 °F 23.5 °F 19.4 °F 59% 30.00 in 10.0 mi WSW 11.5 mph - N/A   Overcast
7:35 AM 32.9 °F 25.3 °F 19.8 °F 59% 30.02 in 10.0 mi West 9.2 mph - N/A   Mostly Cloudy
7:55 AM 33.4 °F 23.9 °F 19.0 °F 56% 30.03 in 10.0 mi West 13.8 mph - N/A   Scattered Clouds
8:15 AM 33.4 °F 23.9 °F 18.3 °F 54% 30.05 in 10.0 mi West 13.8 mph 19.6 mph N/A   Clear
8:35 AM 33.8 °F 23.5 °F 18.5 °F 54% 30.05 in 10.0 mi West 16.1 mph - N/A   Clear
8:55 AM 34.2 °F 23.6 °F 19.0 °F 54% 30.07 in 10.0 mi West 17.3 mph 20.7 mph N/A   Clear
9:15 AM 34.7 °F 24.7 °F 19.9 °F 55% 30.08 in 10.0 mi West 16.1 mph 19.6 mph N/A   Clear
9:35 AM 36.5 °F 26.7 °F 20.8 °F 53% 30.09 in 10.0 mi West 17.3 mph 21.9 mph N/A   Clear
9:55 AM 37.9 °F 28.2 °F 23.4 °F 56% 30.10 in 10.0 mi West 18.4 mph 25.3 mph N/A   Clear
10:15 AM 37.8 °F 28.0 °F 24.1 °F 58% 30.10 in 10.0 mi West 18.4 mph - N/A   Clear
10:35 AM 40.3 °F 31.9 °F 24.8 °F 54% 30.11 in 10.0 mi WNW 16.1 mph 21.9 mph N/A   Clear
10:55 AM 41.2 °F 32.7 °F 24.4 °F 51% 30.12 in 10.0 mi West 17.3 mph 23.0 mph N/A   Clear
11:15 AM 43.0 °F 34.8 °F 23.0 °F 45% 30.12 in 10.0 mi WNW 18.4 mph 31.1 mph N/A   Scattered Clouds
11:35 AM 41.7 °F 33.4 °F 18.3 °F 39% 30.12 in 10.0 mi NNW 17.3 mph - N/A   Mostly Cloudy
11:55 AM 43.5 °F 36.7 °F 20.7 °F 40% 30.12 in 10.0 mi NW 13.8 mph - N/A   Overcast
12:15 PM 40.8 °F 33.7 °F 24.6 °F 53% 30.13 in 5.0 mi NNW 12.7 mph 17.3 mph N/A   Haze
12:35 PM 43.0 °F 35.1 °F 16.5 °F 34% 30.13 in 10.0 mi NW 17.3 mph 25.3 mph N/A   Overcast
12:55 PM 46.0 °F 38.8 °F 14.5 °F 28% 30.12 in 10.0 mi NNW 18.4 mph 26.5 mph N/A   Mostly Cloudy
1:15 PM 45.5 °F 38.3 °F 14.9 °F 29% 30.13 in 10.0 mi NNW 17.3 mph 25.3 mph N/A   Scattered Clouds
1:35 PM 46.0 °F 39.0 °F 14.0 °F 28% 30.13 in 10.0 mi NNW 17.3 mph 26.5 mph N/A   Scattered Clouds
1:55 PM 47.1 °F - 13.6 °F 26% 30.12 in 10.0 mi NW 16.1 mph 25.3 mph N/A   Scattered Clouds
2:15 PM 46.9 °F - 13.1 °F 26% 30.12 in 10.0 mi NNW 17.3 mph 26.5 mph N/A   Scattered Clouds
2:35 PM 47.3 °F - 13.8 °F 26% 30.12 in 10.0 mi North 17.3 mph 28.8 mph N/A   Scattered Clouds
2:55 PM 47.7 °F - 12.7 °F 25% 30.12 in 10.0 mi NNW 20.7 mph 28.8 mph N/A   Scattered Clouds
3:15 PM 47.3 °F - 11.5 °F 24% 30.12 in 10.0 mi NNW 19.6 mph 27.6 mph N/A   Scattered Clouds
3:35 PM 46.6 °F - 11.1 °F 24% 30.12 in 10.0 mi NNW 18.4 mph 23.0 mph N/A   Scattered Clouds
3:55 PM 45.7 °F 37.8 °F 11.7 °F 25% 30.13 in 10.0 mi NNW 20.7 mph 34.5 mph N/A   Scattered Clouds
4:15 PM 46.0 °F 37.8 °F 12.0 °F 25% 30.13 in 10.0 mi North 23.0 mph 26.5 mph N/A   Scattered Clouds
4:35 PM 46.6 °F - 11.5 °F 24% 30.14 in 10.0 mi North 19.6 mph 27.6 mph N/A   Scattered Clouds
4:55 PM 45.3 °F 37.8 °F 11.1 °F 25% 30.14 in 10.0 mi North 18.4 mph 26.5 mph N/A   Mostly Cloudy
5:15 PM 43.3 °F 35.2 °F 10.2 °F 26% 30.15 in 10.0 mi North 18.4 mph 26.5 mph N/A   Overcast
5:35 PM 43.0 °F 35.7 °F 10.4 °F 27% 30.16 in 10.0 mi North 15.0 mph 21.9 mph N/A   Mostly Cloudy
5:55 PM 42.8 °F 35.4 °F 10.4 °F 27% 30.17 in 10.0 mi North 15.0 mph 23.0 mph N/A   Overcast
6:15 PM 41.9 °F 34.6 °F 10.9 °F 28% 30.18 in 10.0 mi North 13.8 mph 21.9 mph N/A   Overcast
6:35 PM 41.2 °F 32.4 °F 11.1 °F 29% 30.19 in 10.0 mi North 18.4 mph 25.3 mph N/A   Overcast
6:55 PM 40.3 °F 32.6 °F 11.5 °F 31% 30.20 in 10.0 mi North 13.8 mph - N/A   Overcast
7:15 PM 40.1 °F 32.7 °F 11.1 °F 31% 30.21 in 10.0 mi North 12.7 mph - N/A   Overcast
7:35 PM 39.4 °F 31.4 °F 11.5 °F 32% 30.22 in 10.0 mi North 13.8 mph 18.4 mph N/A   Overcast
7:55 PM 38.7 °F 31.4 °F 10.8 °F 32% 30.23 in 10.0 mi North 11.5 mph 16.1 mph N/A   Overcast
8:35 PM 34.9 °F 26.2 °F 4.8 °F 28% 30.26 in 10.0 mi North 12.7 mph 18.4 mph N/A   Mostly Cloudy
8:55 PM 33.8 °F 23.5 °F 3.2 °F 28% 30.27 in 10.0 mi North 16.1 mph 20.7 mph N/A   Mostly Cloudy
9:15 PM 32.2 °F 24.4 °F 3.9 °F 30% 30.28 in 10.0 mi North 9.2 mph - N/A   Scattered Clouds
9:35 PM 31.6 °F 24.4 °F 4.1 °F 31% 30.29 in 10.0 mi North 8.1 mph - N/A   Scattered Clouds
9:55 PM 30.0 °F 24.1 °F 4.5 °F 34% 30.30 in 10.0 mi North 5.8 mph - N/A   Clear
10:15 PM 28.8 °F 21.7 °F 4.8 °F 36% 30.31 in 10.0 mi North 6.9 mph - N/A   Scattered Clouds
10:35 PM 27.7 °F 21.3 °F 4.1 °F 37% 30.32 in 10.0 mi North 5.8 mph - N/A   Scattered Clouds
10:55 PM 26.8 °F 22.8 °F 4.6 °F 39% 30.33 in 10.0 mi North 3.5 mph - N/A   Clear
11:15 PM 25.0 °F 20.7 °F 5.4 °F 43% 30.33 in 10.0 mi North 3.5 mph - N/A   Clear
11:35 PM 24.1 °F - 7.5 °F 49% 30.34 in 10.0 mi Calm Calm - N/A   Scattered Clouds
11:55 PM 23.0 °F 18.4 °F 7.7 °F 52% 30.34 in 10.0 mi NNW 3.5 mph - N/A   Clear